#datetime,building,power
2024-01-23T10:22:00,hld,10.52
2024-01-23T10:23:00,hld,10.59
2024-01-23T10:24:00,hld,10.43
2024-01-23T10:25:00,hld,10.45
2024-01-23T10:26:00,hld,10.37
2024-01-23T10:27:00,hld,10.41
2024-01-23T10:28:00,hld,10.34
2024-01-23T10:29:00,hld,10.31
2024-01-23T10:30:00,hld,10.31
2024-01-23T10:31:00,hld,10.29
2024-01-23T10:32:00,hld,10.29
2024-01-23T10:33:00,hld,10.34
2024-01-23T10:34:00,hld,10.95
2024-01-23T10:35:00,hld,10.39
2024-01-23T10:36:00,hld,10.47
2024-01-23T10:37:00,hld,10.91
2024-01-23T10:38:00,hld,10.47
2024-01-23T10:39:00,hld,10.44
2024-01-23T10:40:00,hld,10.39
2024-01-23T10:41:00,hld,10.43
2024-01-23T10:42:00,hld,10.52
2024-01-23T10:43:00,hld,10.48
2024-01-23T10:44:00,hld,10.38
2024-01-23T10:45:00,hld,10.32
2024-01-23T10:46:00,hld,10.27
2024-01-23T10:47:00,hld,10.44
2024-01-23T10:48:00,hld,10.33
2024-01-23T10:49:00,hld,10.44
2024-01-23T10:50:00,hld,10.47
2024-01-23T10:51:00,hld,10.44
2024-01-23T10:52:00,hld,10.46
2024-01-23T10:53:00,hld,18.91
2024-01-23T10:54:00,hld,18.81
2024-01-23T10:55:00,hld,18.65
2024-01-23T10:56:00,hld,18.69
2024-01-23T10:57:00,hld,18.56
2024-01-23T10:58:00,hld,10.52
2024-01-23T10:59:00,hld,9.60
2024-01-23T11:00:00,hld,11.26
2024-01-23T11:01:00,hld,9.57
2024-01-23T11:02:00,hld,11.27
2024-01-23T11:03:00,hld,9.56
2024-01-23T11:04:00,hld,9.52
2024-01-23T11:05:00,hld,9.57
2024-01-23T11:06:00,hld,9.58
2024-01-23T11:07:00,hld,9.48
2024-01-23T11:08:00,hld,9.44
2024-01-23T11:09:00,hld,9.44
2024-01-23T11:10:00,hld,9.52
2024-01-23T11:11:00,hld,9.43
2024-01-23T11:12:00,hld,9.43
2024-01-23T11:13:00,hld,9.46
2024-01-23T11:14:00,hld,9.40
2024-01-23T11:15:00,hld,9.38
2024-01-23T11:16:00,hld,9.38
2024-01-23T11:17:00,hld,9.38
2024-01-23T11:18:00,hld,9.38
2024-01-23T11:19:00,hld,9.35
2024-01-23T11:20:00,hld,9.33
2024-01-23T11:21:00,hld,9.35
2024-01-23T11:22:00,hld,9.29
2024-01-23T11:23:00,hld,8.05
2024-01-23T11:24:00,hld,8.03
2024-01-23T11:25:00,hld,8.22
2024-01-23T11:26:00,hld,8.24
2024-01-23T11:27:00,hld,8.29
2024-01-23T11:28:00,hld,9.58
2024-01-23T11:29:00,hld,11.87
2024-01-23T11:30:00,hld,15.78
2024-01-23T11:31:00,hld,15.79
2024-01-23T11:32:00,hld,15.72
2024-01-23T11:33:00,hld,16.44
2024-01-23T11:34:00,hld,15.72
2024-01-23T11:35:00,hld,11.58
2024-01-23T11:36:00,hld,11.55
2024-01-23T11:37:00,hld,11.61
2024-01-23T11:38:00,hld,11.67
2024-01-23T11:39:00,hld,11.70
2024-01-23T11:40:00,hld,11.94
2024-01-23T11:41:00,hld,11.87
2024-01-23T11:42:00,hld,11.70
2024-01-23T11:43:00,hld,11.70
2024-01-23T11:44:00,hld,11.70
2024-01-23T11:45:00,hld,11.70
2024-01-23T11:46:00,hld,11.67
2024-01-23T11:47:00,hld,11.68
2024-01-23T11:48:00,hld,12.36
2024-01-23T11:49:00,hld,11.68
2024-01-23T11:50:00,hld,11.69
2024-01-23T11:51:00,hld,11.64
2024-01-23T11:52:00,hld,11.59
2024-01-23T11:53:00,hld,11.60
2024-01-23T11:54:00,hld,11.38
2024-01-23T11:55:00,hld,11.29
2024-01-23T11:56:00,hld,11.29
2024-01-23T11:57:00,hld,11.31
2024-01-23T11:58:00,hld,11.30
2024-01-23T11:59:00,hld,10.62
2024-01-23T12:00:00,hld,10.65
2024-01-23T12:01:00,hld,10.72
2024-01-23T12:02:00,hld,10.66
2024-01-23T12:03:00,hld,10.64
2024-01-23T12:04:00,hld,10.63
2024-01-23T12:05:00,hld,10.53
2024-01-23T12:06:00,hld,10.82
2024-01-23T12:07:00,hld,10.47
2024-01-23T12:08:00,hld,10.50
2024-01-23T12:09:00,hld,10.64
2024-01-23T12:10:00,hld,10.66
2024-01-23T12:11:00,hld,10.60
2024-01-23T12:12:00,hld,10.59
2024-01-23T12:13:00,hld,10.63
2024-01-23T12:14:00,hld,10.63
2024-01-23T12:15:00,hld,20.47
2024-01-23T12:16:00,hld,13.33
2024-01-23T12:17:00,hld,13.26
2024-01-23T12:18:00,hld,11.57
2024-01-23T12:19:00,hld,10.74
2024-01-23T12:20:00,hld,10.62
2024-01-23T12:21:00,hld,10.56
2024-01-23T12:22:00,hld,10.89
2024-01-23T12:23:00,hld,10.73
2024-01-23T12:24:00,hld,10.74
2024-01-23T12:25:00,hld,10.93
2024-01-23T12:26:00,hld,10.82
2024-01-23T12:27:00,hld,11.42
2024-01-23T12:28:00,hld,10.78
2024-01-23T12:29:00,hld,10.83
2024-01-23T12:30:00,hld,10.79
2024-01-23T12:31:00,hld,10.79
2024-01-23T12:32:00,hld,10.74
2024-01-23T12:33:00,hld,10.77
2024-01-23T12:34:00,hld,10.76
2024-01-23T12:35:00,hld,10.77
2024-01-23T12:36:00,hld,10.87
2024-01-23T12:37:00,hld,10.74
2024-01-23T12:38:00,hld,10.68
2024-01-23T12:39:00,hld,10.72
2024-01-23T12:40:00,hld,10.85
2024-01-23T12:41:00,hld,10.84
2024-01-23T12:42:00,hld,10.60
2024-01-23T12:43:00,hld,10.62
2024-01-23T12:44:00,hld,10.62
2024-01-23T12:45:00,hld,10.57
2024-01-23T12:46:00,hld,10.67
2024-01-23T12:47:00,hld,10.58
2024-01-23T12:48:00,hld,10.37
2024-01-23T12:49:00,hld,10.35
2024-01-23T12:50:00,hld,10.37
2024-01-23T12:51:00,hld,10.36
2024-01-23T12:52:00,hld,10.32
2024-01-23T12:53:00,hld,10.32
2024-01-23T12:54:00,hld,10.25
2024-01-23T12:55:00,hld,10.24
2024-01-23T12:56:00,hld,10.27
2024-01-23T12:57:00,hld,10.21
2024-01-23T12:58:00,hld,10.28
2024-01-23T12:59:00,hld,10.25
2024-01-23T13:00:00,hld,10.25
2024-01-23T13:01:00,hld,10.24
2024-01-23T13:02:00,hld,9.03
2024-01-23T13:03:00,hld,8.79
2024-01-23T13:04:00,hld,8.77
2024-01-23T13:05:00,hld,12.76
2024-01-23T13:06:00,hld,12.79
2024-01-23T13:07:00,hld,12.83
2024-01-23T13:08:00,hld,12.83
2024-01-23T13:09:00,hld,8.82
2024-01-23T13:10:00,hld,8.72
2024-01-23T13:11:00,hld,8.86
2024-01-23T13:12:00,hld,8.83
2024-01-23T13:13:00,hld,8.73
2024-01-23T13:14:00,hld,8.78
2024-01-23T13:15:00,hld,8.85
2024-01-23T13:16:00,hld,8.84
2024-01-23T13:17:00,hld,8.82
2024-01-23T13:18:00,hld,8.86
2024-01-23T13:19:00,hld,9.01
2024-01-23T13:20:00,hld,8.99
2024-01-23T13:21:00,hld,8.92
2024-01-23T13:22:00,hld,8.90
2024-01-23T13:23:00,hld,9.55
2024-01-23T13:24:00,hld,8.88
2024-01-23T13:25:00,hld,8.88
2024-01-23T13:26:00,hld,8.79
2024-01-23T13:27:00,hld,8.80
2024-01-23T13:28:00,hld,8.83
2024-01-23T13:29:00,hld,8.82
2024-01-23T13:30:00,hld,8.82
2024-01-23T13:31:00,hld,8.77
2024-01-23T13:32:00,hld,8.76
2024-01-23T13:33:00,hld,8.81
2024-01-23T13:34:00,hld,8.66
2024-01-23T13:35:00,hld,8.68
2024-01-23T13:36:00,hld,17.15
2024-01-23T13:37:00,hld,14.05
2024-01-23T13:38:00,hld,13.89
2024-01-23T13:39:00,hld,14.02
2024-01-23T13:40:00,hld,13.53
2024-01-23T13:41:00,hld,5.58
2024-01-23T13:42:00,hld,7.08
2024-01-23T13:43:00,hld,5.59
2024-01-23T13:44:00,hld,5.50
2024-01-23T13:45:00,hld,5.58
2024-01-23T13:46:00,hld,5.56
2024-01-23T13:47:00,hld,5.56
2024-01-23T13:48:00,hld,5.59
2024-01-23T13:49:00,hld,5.51
2024-01-23T13:50:00,hld,5.41
2024-01-23T13:51:00,hld,5.48
2024-01-23T13:52:00,hld,5.52
2024-01-23T13:53:00,hld,5.53
2024-01-23T13:54:00,hld,5.50
2024-01-23T13:55:00,hld,5.37
2024-01-23T13:56:00,hld,5.46
2024-01-23T13:57:00,hld,5.45
2024-01-23T13:58:00,hld,5.44
2024-01-23T13:59:00,hld,5.45
2024-01-23T14:00:00,hld,5.29
2024-01-23T14:01:00,hld,5.41
2024-01-23T14:02:00,hld,5.72
2024-01-23T14:03:00,hld,5.52
2024-01-23T14:04:00,hld,5.56
2024-01-23T14:05:00,hld,5.56
2024-01-23T14:06:00,hld,5.54
2024-01-23T14:07:00,hld,5.54
2024-01-23T14:08:00,hld,5.99
2024-01-23T14:09:00,hld,5.58
2024-01-23T14:10:00,hld,5.57
2024-01-23T14:11:00,hld,5.46
2024-01-23T14:12:00,hld,5.50
2024-01-23T14:13:00,hld,5.46
2024-01-23T14:14:00,hld,5.23
2024-01-23T14:15:00,hld,5.27
2024-01-23T14:16:00,hld,5.93
2024-01-23T14:17:00,hld,5.28
2024-01-23T14:18:00,hld,5.63
2024-01-23T14:19:00,hld,5.26
2024-01-23T14:20:00,hld,5.58
2024-01-23T14:21:00,hld,5.57
2024-01-23T14:22:00,hld,5.62
2024-01-23T14:23:00,hld,5.55
2024-01-23T14:24:00,hld,5.52
2024-01-23T14:25:00,hld,5.49
2024-01-23T14:26:00,hld,5.54
2024-01-23T14:27:00,hld,5.53
2024-01-23T14:28:00,hld,5.37
2024-01-23T14:29:00,hld,5.34
2024-01-23T14:30:00,hld,5.30
2024-01-23T14:31:00,hld,6.78
2024-01-23T14:32:00,hld,5.33
2024-01-23T14:33:00,hld,5.32
2024-01-23T14:34:00,hld,5.33
2024-01-23T14:35:00,hld,5.29
2024-01-23T14:36:00,hld,5.99
2024-01-23T14:37:00,hld,5.21
2024-01-23T14:38:00,hld,5.48
2024-01-23T14:39:00,hld,5.44
2024-01-23T14:40:00,hld,5.43
2024-01-23T14:41:00,hld,5.46
2024-01-23T14:42:00,hld,5.46
2024-01-23T14:43:00,hld,5.48
2024-01-23T14:44:00,hld,5.44
2024-01-23T14:45:00,hld,5.46
2024-01-23T14:46:00,hld,5.33
2024-01-23T14:47:00,hld,5.52
2024-01-23T14:48:00,hld,5.51
2024-01-23T14:49:00,hld,5.67
2024-01-23T14:50:00,hld,5.64
2024-01-23T14:51:00,hld,5.54
2024-01-23T14:52:00,hld,5.67
2024-01-23T14:53:00,hld,5.56
2024-01-23T14:54:00,hld,5.51
2024-01-23T14:55:00,hld,5.52
2024-01-23T14:56:00,hld,5.28
2024-01-23T14:57:00,hld,5.28
2024-01-23T14:58:00,hld,5.20
2024-01-23T14:59:00,hld,5.19
2024-01-23T15:00:00,hld,6.00
2024-01-23T15:01:00,hld,5.74
2024-01-23T15:02:00,hld,5.77
2024-01-23T15:03:00,hld,5.88
2024-01-23T15:04:00,hld,5.84
2024-01-23T15:05:00,hld,5.89
2024-01-23T15:06:00,hld,5.85
2024-01-23T15:07:00,hld,5.86
2024-01-23T15:08:00,hld,5.94
2024-01-23T15:09:00,hld,5.91
2024-01-23T15:10:00,hld,5.92
2024-01-23T15:11:00,hld,5.95
2024-01-23T15:12:00,hld,5.91
2024-01-23T15:13:00,hld,5.87
2024-01-23T15:14:00,hld,5.71
2024-01-23T15:15:00,hld,5.76
2024-01-23T15:16:00,hld,5.80
2024-01-23T15:17:00,hld,5.79
2024-01-23T15:18:00,hld,5.49
2024-01-23T15:19:00,hld,5.50
2024-01-23T15:20:00,hld,5.36
2024-01-23T15:21:00,hld,5.37
2024-01-23T15:22:00,hld,6.00
2024-01-23T15:23:00,hld,5.35
2024-01-23T15:24:00,hld,5.24
2024-01-23T15:25:00,hld,5.23
2024-01-23T15:26:00,hld,5.26
2024-01-23T15:27:00,hld,5.24
2024-01-23T15:28:00,hld,5.25
2024-01-23T15:29:00,hld,5.26
2024-01-23T15:30:00,hld,5.24
2024-01-23T15:31:00,hld,5.23
2024-01-23T15:32:00,hld,5.25
2024-01-23T15:33:00,hld,5.23
2024-01-23T15:34:00,hld,5.29
2024-01-23T15:35:00,hld,5.25
2024-01-23T15:36:00,hld,5.31
2024-01-23T15:37:00,hld,5.30
2024-01-23T15:38:00,hld,5.27
2024-01-23T15:39:00,hld,5.43
2024-01-23T15:40:00,hld,5.51
2024-01-23T15:41:00,hld,5.44
2024-01-23T15:42:00,hld,5.45
2024-01-23T15:43:00,hld,5.44
2024-01-23T15:44:00,hld,5.45
2024-01-23T15:45:00,hld,5.38
2024-01-23T15:46:00,hld,5.38
2024-01-23T15:47:00,hld,5.41
2024-01-23T15:48:00,hld,5.40
2024-01-23T15:49:00,hld,5.41
2024-01-23T15:50:00,hld,5.40
2024-01-23T15:51:00,hld,5.41
2024-01-23T15:52:00,hld,5.52
2024-01-23T15:53:00,hld,5.54
2024-01-23T15:54:00,hld,5.56
2024-01-23T15:55:00,hld,5.52
2024-01-23T15:56:00,hld,5.53
2024-01-23T15:57:00,hld,5.54
2024-01-23T15:58:00,hld,5.52
2024-01-23T15:59:00,hld,5.54
2024-01-23T16:00:00,hld,5.58
2024-01-23T16:01:00,hld,5.59
2024-01-23T16:02:00,hld,5.58
2024-01-23T16:03:00,hld,5.57
2024-01-23T16:04:00,hld,5.58
2024-01-23T16:05:00,hld,5.60
2024-01-23T16:06:00,hld,5.83
2024-01-23T16:07:00,hld,5.70
2024-01-23T16:08:00,hld,5.82
2024-01-23T16:09:00,hld,5.80
2024-01-23T16:10:00,hld,5.77
2024-01-23T16:11:00,hld,5.79
2024-01-23T16:12:00,hld,5.79
2024-01-23T16:13:00,hld,5.82
2024-01-23T16:14:00,hld,5.79
2024-01-23T16:15:00,hld,5.77
2024-01-23T16:16:00,hld,5.79
2024-01-23T16:17:00,hld,5.70
2024-01-23T16:18:00,hld,5.75
2024-01-23T16:19:00,hld,5.70
2024-01-23T16:20:00,hld,5.68
2024-01-23T16:21:00,hld,6.06
2024-01-23T16:22:00,hld,5.67
2024-01-23T16:23:00,hld,6.58
2024-01-23T16:24:00,hld,6.71
2024-01-23T16:25:00,hld,7.91
2024-01-23T16:26:00,hld,8.20
2024-01-23T16:27:00,hld,8.12
2024-01-23T16:28:00,hld,8.09
2024-01-23T16:29:00,hld,8.68
2024-01-23T16:30:00,hld,8.61
2024-01-23T16:31:00,hld,8.62
2024-01-23T16:32:00,hld,8.53
2024-01-23T16:33:00,hld,8.52
2024-01-23T16:34:00,hld,8.54
2024-01-23T16:35:00,hld,8.53
2024-01-23T16:36:00,hld,8.53
2024-01-23T16:37:00,hld,8.66
2024-01-23T16:38:00,hld,8.65
2024-01-23T16:39:00,hld,8.69
2024-01-23T16:40:00,hld,8.63
2024-01-23T16:41:00,hld,7.44
2024-01-23T16:42:00,hld,7.44
2024-01-23T16:43:00,hld,7.44
2024-01-23T16:44:00,hld,7.49
2024-01-23T16:45:00,hld,7.39
2024-01-23T16:46:00,hld,7.43
2024-01-23T16:47:00,hld,7.48
2024-01-23T16:48:00,hld,7.38
2024-01-23T16:49:00,hld,7.40
2024-01-23T16:50:00,hld,7.36
2024-01-23T16:51:00,hld,7.64
2024-01-23T16:52:00,hld,7.66
2024-01-23T16:53:00,hld,8.37
2024-01-23T16:54:00,hld,7.63
2024-01-23T16:55:00,hld,7.58
2024-01-23T16:56:00,hld,7.55
2024-01-23T16:57:00,hld,7.59
2024-01-23T16:58:00,hld,7.58
2024-01-23T16:59:00,hld,7.58
2024-01-23T17:00:00,hld,7.59
2024-01-23T17:01:00,hld,7.56
2024-01-23T17:02:00,hld,7.55
2024-01-23T17:03:00,hld,7.69
2024-01-23T17:04:00,hld,7.69
2024-01-23T17:05:00,hld,7.70
2024-01-23T17:06:00,hld,7.72
2024-01-23T17:07:00,hld,7.65
2024-01-23T17:08:00,hld,7.67
2024-01-23T17:09:00,hld,7.63
2024-01-23T17:10:00,hld,7.40
2024-01-23T17:11:00,hld,7.38
2024-01-23T17:12:00,hld,7.42
2024-01-23T17:13:00,hld,7.41
2024-01-23T17:14:00,hld,7.39
2024-01-23T17:15:00,hld,15.90
2024-01-23T17:16:00,hld,14.42
2024-01-23T17:17:00,hld,13.75
2024-01-23T17:18:00,hld,13.87
2024-01-23T17:19:00,hld,13.71
2024-01-23T17:20:00,hld,5.79
2024-01-23T17:21:00,hld,5.85
2024-01-23T17:22:00,hld,5.87
2024-01-23T17:23:00,hld,6.46
2024-01-23T17:24:00,hld,5.78
2024-01-23T17:25:00,hld,5.76
2024-01-23T17:26:00,hld,5.79
2024-01-23T17:27:00,hld,5.80
2024-01-23T17:28:00,hld,5.78
2024-01-23T17:29:00,hld,5.79
2024-01-23T17:30:00,hld,5.78
2024-01-23T17:31:00,hld,5.81
2024-01-23T17:32:00,hld,5.80
2024-01-23T17:33:00,hld,5.81
2024-01-23T17:34:00,hld,5.81
2024-01-23T17:35:00,hld,5.86
2024-01-23T17:36:00,hld,5.48
2024-01-23T17:37:00,hld,5.50
2024-01-23T17:38:00,hld,5.47
2024-01-23T17:39:00,hld,5.49
2024-01-23T17:40:00,hld,5.47
2024-01-23T17:41:00,hld,5.46
2024-01-23T17:42:00,hld,5.49
2024-01-23T17:43:00,hld,5.43
2024-01-23T17:44:00,hld,5.47
2024-01-23T17:45:00,hld,5.36
2024-01-23T17:46:00,hld,5.39
2024-01-23T17:47:00,hld,5.38
2024-01-23T17:48:00,hld,5.67
2024-01-23T17:49:00,hld,5.39
2024-01-23T17:50:00,hld,5.54
2024-01-23T17:51:00,hld,5.49
2024-01-23T17:52:00,hld,5.50
2024-01-23T17:53:00,hld,3.04
2024-01-23T17:54:00,hld,3.04
2024-01-23T17:55:00,hld,3.03
2024-01-23T17:56:00,hld,3.01
2024-01-23T17:57:00,hld,3.03
2024-01-23T17:58:00,hld,2.87
2024-01-23T17:59:00,hld,2.90
2024-01-23T18:00:00,hld,2.83
2024-01-23T18:01:00,hld,2.86
2024-01-23T18:02:00,hld,2.83
2024-01-23T18:03:00,hld,3.27
2024-01-23T18:04:00,hld,2.84
2024-01-23T18:05:00,hld,2.85
2024-01-23T18:06:00,hld,2.87
2024-01-23T18:07:00,hld,2.85
2024-01-23T18:08:00,hld,2.83
2024-01-23T18:09:00,hld,2.85
2024-01-23T18:10:00,hld,2.84
2024-01-23T18:11:00,hld,2.83
2024-01-23T18:12:00,hld,3.01
2024-01-23T18:13:00,hld,2.97
2024-01-23T18:14:00,hld,3.01
2024-01-23T18:15:00,hld,2.99
2024-01-23T18:16:00,hld,2.97
2024-01-23T18:17:00,hld,2.98
2024-01-23T18:18:00,hld,2.93
2024-01-23T18:19:00,hld,2.95
2024-01-23T18:20:00,hld,2.96
2024-01-23T18:21:00,hld,3.51
2024-01-23T18:22:00,hld,2.93
2024-01-23T18:23:00,hld,2.93
2024-01-23T18:24:00,hld,2.93
2024-01-23T18:25:00,hld,3.52
2024-01-23T18:26:00,hld,2.80
2024-01-23T18:27:00,hld,2.82
2024-01-23T18:28:00,hld,2.80
2024-01-23T18:29:00,hld,2.85
2024-01-23T18:30:00,hld,3.33
2024-01-23T18:31:00,hld,2.79
2024-01-23T18:32:00,hld,2.80
2024-01-23T18:33:00,hld,2.83
2024-01-23T18:34:00,hld,2.79
2024-01-23T18:35:00,hld,2.82
2024-01-23T18:36:00,hld,2.82
2024-01-23T18:37:00,hld,4.33
2024-01-23T18:38:00,hld,2.86
2024-01-23T18:39:00,hld,2.80
2024-01-23T18:40:00,hld,2.83
2024-01-23T18:41:00,hld,2.83
2024-01-23T18:42:00,hld,2.80
2024-01-23T18:43:00,hld,2.85
2024-01-23T18:44:00,hld,2.81
2024-01-23T18:45:00,hld,2.83
2024-01-23T18:46:00,hld,3.76
2024-01-23T18:47:00,hld,5.99
2024-01-23T18:48:00,hld,6.09
2024-01-23T18:49:00,hld,6.10
2024-01-23T18:50:00,hld,7.16
2024-01-23T18:51:00,hld,8.02
2024-01-23T18:52:00,hld,8.38
2024-01-23T18:53:00,hld,8.78
2024-01-23T18:54:00,hld,10.28
2024-01-23T18:55:00,hld,10.24
2024-01-23T18:56:00,hld,10.24
2024-01-23T18:57:00,hld,10.22
2024-01-23T18:58:00,hld,10.30
2024-01-23T18:59:00,hld,11.01
2024-01-23T19:00:00,hld,10.42
2024-01-23T19:01:00,hld,10.29
2024-01-23T19:02:00,hld,10.34
2024-01-23T19:03:00,hld,10.36
2024-01-23T19:04:00,hld,10.35
2024-01-23T19:05:00,hld,10.32
2024-01-23T19:06:00,hld,10.29
2024-01-23T19:07:00,hld,10.36
2024-01-23T19:08:00,hld,10.38
2024-01-23T19:09:00,hld,10.52
2024-01-23T19:10:00,hld,10.85
2024-01-23T19:11:00,hld,11.01
2024-01-23T19:12:00,hld,10.28
2024-01-23T19:13:00,hld,10.24
2024-01-23T19:14:00,hld,10.24
2024-01-23T19:15:00,hld,10.25
2024-01-23T19:16:00,hld,10.21
2024-01-23T19:17:00,hld,10.15
2024-01-23T19:18:00,hld,10.13
2024-01-23T19:19:00,hld,10.22
2024-01-23T19:20:00,hld,10.25
2024-01-23T19:21:00,hld,10.41
2024-01-23T19:22:00,hld,10.41
2024-01-23T19:23:00,hld,10.43
2024-01-23T19:24:00,hld,10.60
2024-01-23T19:25:00,hld,10.61
2024-01-23T19:26:00,hld,11.98
2024-01-23T19:27:00,hld,10.51
2024-01-23T19:28:00,hld,10.50
2024-01-23T19:29:00,hld,11.26
2024-01-23T19:30:00,hld,10.81
2024-01-23T19:31:00,hld,10.68
2024-01-23T19:32:00,hld,10.72
2024-01-23T19:33:00,hld,10.71
2024-01-23T19:34:00,hld,11.26
2024-01-23T19:35:00,hld,10.45
2024-01-23T19:36:00,hld,10.41
2024-01-23T19:37:00,hld,10.49
2024-01-23T19:38:00,hld,10.57
2024-01-23T19:39:00,hld,10.50
2024-01-23T19:40:00,hld,14.49
2024-01-23T19:41:00,hld,14.42
2024-01-23T19:42:00,hld,14.44
2024-01-23T19:43:00,hld,14.64
2024-01-23T19:44:00,hld,14.42
2024-01-23T19:45:00,hld,10.37
2024-01-23T19:46:00,hld,10.30
2024-01-23T19:47:00,hld,10.67
2024-01-23T19:48:00,hld,10.36
2024-01-23T19:49:00,hld,10.29
2024-01-23T19:50:00,hld,10.31
2024-01-23T19:51:00,hld,10.44
2024-01-23T19:52:00,hld,10.46
2024-01-23T19:53:00,hld,10.50
2024-01-23T19:54:00,hld,10.53
2024-01-23T19:55:00,hld,10.54
2024-01-23T19:56:00,hld,10.55
2024-01-23T19:57:00,hld,10.57
2024-01-23T19:58:00,hld,10.50
2024-01-23T19:59:00,hld,10.52
2024-01-23T20:00:00,hld,10.55
2024-01-23T20:01:00,hld,10.41
2024-01-23T20:02:00,hld,10.40
2024-01-23T20:03:00,hld,10.38
2024-01-23T20:04:00,hld,10.38
2024-01-23T20:05:00,hld,10.42
2024-01-23T20:06:00,hld,10.41
2024-01-23T20:07:00,hld,10.53
2024-01-23T20:08:00,hld,10.58
2024-01-23T20:09:00,hld,10.55
2024-01-23T20:10:00,hld,10.51
2024-01-23T20:11:00,hld,10.54
2024-01-23T20:12:00,hld,11.30
2024-01-23T20:13:00,hld,10.55
2024-01-23T20:14:00,hld,10.45
2024-01-23T20:15:00,hld,10.40
2024-01-23T20:16:00,hld,10.38
2024-01-23T20:17:00,hld,10.39
2024-01-23T20:18:00,hld,10.40
2024-01-23T20:19:00,hld,11.54
2024-01-23T20:20:00,hld,10.74
2024-01-23T20:21:00,hld,10.50
2024-01-23T20:22:00,hld,10.87
2024-01-23T20:23:00,hld,10.32
2024-01-23T20:24:00,hld,10.29
2024-01-23T20:25:00,hld,10.27
2024-01-23T20:26:00,hld,10.32
2024-01-23T20:27:00,hld,10.30
2024-01-23T20:28:00,hld,10.32
2024-01-23T20:29:00,hld,10.45
2024-01-23T20:30:00,hld,10.33
2024-01-23T20:31:00,hld,10.30
2024-01-23T20:32:00,hld,10.28
2024-01-23T20:33:00,hld,10.31
2024-01-23T20:34:00,hld,10.18
2024-01-23T20:35:00,hld,10.30
2024-01-23T20:36:00,hld,10.38
2024-01-23T20:37:00,hld,10.38
2024-01-23T20:38:00,hld,10.44
2024-01-23T20:39:00,hld,10.47
2024-01-23T20:40:00,hld,10.46
2024-01-23T20:41:00,hld,10.96
2024-01-23T20:42:00,hld,10.60
2024-01-23T20:43:00,hld,10.56
2024-01-23T20:44:00,hld,11.09
2024-01-23T20:45:00,hld,10.54
2024-01-23T20:46:00,hld,10.50
2024-01-23T20:47:00,hld,10.46
2024-01-23T20:48:00,hld,10.75
2024-01-23T20:49:00,hld,10.25
2024-01-23T20:50:00,hld,10.31
2024-01-23T20:51:00,hld,10.28
2024-01-23T20:52:00,hld,10.35
2024-01-23T20:53:00,hld,11.00
2024-01-23T20:54:00,hld,10.39
2024-01-23T20:55:00,hld,10.36
2024-01-23T20:56:00,hld,10.39
2024-01-23T20:57:00,hld,10.31
2024-01-23T20:58:00,hld,10.34
2024-01-23T20:59:00,hld,18.94
2024-01-23T21:00:00,hld,19.30
2024-01-23T21:01:00,hld,18.40
2024-01-23T21:02:00,hld,18.22
2024-01-23T21:03:00,hld,18.11
2024-01-23T21:04:00,hld,10.08
2024-01-23T21:05:00,hld,10.10
2024-01-23T21:06:00,hld,10.08
2024-01-23T21:07:00,hld,10.11
2024-01-23T21:08:00,hld,10.03
2024-01-23T21:09:00,hld,10.78
2024-01-23T21:10:00,hld,10.06
2024-01-23T21:11:00,hld,10.14
2024-01-23T21:12:00,hld,10.11
2024-01-23T21:13:00,hld,10.06
2024-01-23T21:14:00,hld,10.01
2024-01-23T21:15:00,hld,10.24
2024-01-23T21:16:00,hld,10.22
2024-01-23T21:17:00,hld,10.24
2024-01-23T21:18:00,hld,10.22
2024-01-23T21:19:00,hld,10.20
2024-01-23T21:20:00,hld,10.98
2024-01-23T21:21:00,hld,10.16
2024-01-23T21:22:00,hld,10.20
2024-01-23T21:23:00,hld,10.83
2024-01-23T21:24:00,hld,9.88
2024-01-23T21:25:00,hld,9.91
2024-01-23T21:26:00,hld,9.89
2024-01-23T21:27:00,hld,9.88
2024-01-23T21:28:00,hld,9.89
2024-01-23T21:29:00,hld,9.89
2024-01-23T21:30:00,hld,10.01
2024-01-23T21:31:00,hld,4.17
2024-01-23T21:32:00,hld,4.19
2024-01-23T21:33:00,hld,4.18
2024-01-23T21:34:00,hld,4.15
2024-01-23T21:35:00,hld,4.26
2024-01-23T21:36:00,hld,4.16
2024-01-23T21:37:00,hld,4.15
2024-01-23T21:38:00,hld,4.15
2024-01-23T21:39:00,hld,4.05
2024-01-23T21:40:00,hld,4.06
2024-01-23T21:41:00,hld,4.06
2024-01-23T21:42:00,hld,4.07
2024-01-23T21:43:00,hld,4.04
2024-01-23T21:44:00,hld,4.06
2024-01-23T21:45:00,hld,4.07
2024-01-23T21:46:00,hld,4.05
2024-01-23T21:47:00,hld,4.08
2024-01-23T21:48:00,hld,4.06
2024-01-23T21:49:00,hld,4.06
2024-01-23T21:50:00,hld,4.06
2024-01-23T21:51:00,hld,4.09
2024-01-23T21:52:00,hld,4.07
2024-01-23T21:53:00,hld,4.05
2024-01-23T21:54:00,hld,5.34
2024-01-23T21:55:00,hld,4.05
2024-01-23T21:56:00,hld,4.05
2024-01-23T21:57:00,hld,4.49
2024-01-23T21:58:00,hld,4.03
2024-01-23T21:59:00,hld,4.05
2024-01-23T22:00:00,hld,4.06
2024-01-23T22:01:00,hld,2.84
2024-01-23T22:02:00,hld,2.84
2024-01-23T22:03:00,hld,2.83
2024-01-23T22:04:00,hld,2.94
2024-01-23T22:05:00,hld,2.96
2024-01-23T22:06:00,hld,2.95
2024-01-23T22:07:00,hld,2.95
2024-01-23T22:08:00,hld,2.93
2024-01-23T22:09:00,hld,2.92
2024-01-23T22:10:00,hld,2.94
2024-01-23T22:11:00,hld,2.96
2024-01-23T22:12:00,hld,2.82
2024-01-23T22:13:00,hld,2.83
2024-01-23T22:14:00,hld,2.85
2024-01-23T22:15:00,hld,2.85
2024-01-23T22:16:00,hld,3.38
2024-01-23T22:17:00,hld,2.88
2024-01-23T22:18:00,hld,2.83
2024-01-23T22:19:00,hld,2.81
2024-01-23T22:20:00,hld,3.38
2024-01-23T22:21:00,hld,2.84
2024-01-23T22:22:00,hld,2.85
2024-01-23T22:23:00,hld,2.83
2024-01-23T22:24:00,hld,2.84
2024-01-23T22:25:00,hld,2.82
2024-01-23T22:26:00,hld,2.97
2024-01-23T22:27:00,hld,2.96
2024-01-23T22:28:00,hld,2.96
2024-01-23T22:29:00,hld,2.95
2024-01-23T22:30:00,hld,2.95
2024-01-23T22:31:00,hld,3.08
2024-01-23T22:32:00,hld,2.93
2024-01-23T22:33:00,hld,2.97
2024-01-23T22:34:00,hld,2.96
2024-01-23T22:35:00,hld,2.97
2024-01-23T22:36:00,hld,2.95
2024-01-23T22:37:00,hld,2.95
2024-01-23T22:38:00,hld,2.94
2024-01-23T22:39:00,hld,2.97
2024-01-23T22:40:00,hld,2.82
2024-01-23T22:41:00,hld,2.83
2024-01-23T22:42:00,hld,2.81
2024-01-23T22:43:00,hld,4.36
2024-01-23T22:44:00,hld,2.81
2024-01-23T22:45:00,hld,2.82
2024-01-23T22:46:00,hld,2.82
2024-01-23T22:47:00,hld,2.81
2024-01-23T22:48:00,hld,2.81
2024-01-23T22:49:00,hld,2.84
2024-01-23T22:50:00,hld,2.83
2024-01-23T22:51:00,hld,2.80
2024-01-23T22:52:00,hld,2.84
2024-01-23T22:53:00,hld,2.81
2024-01-23T22:54:00,hld,2.81
2024-01-23T22:55:00,hld,2.82
2024-01-23T22:56:00,hld,2.80
2024-01-23T22:57:00,hld,2.82
2024-01-23T22:58:00,hld,2.81
2024-01-23T22:59:00,hld,2.82
2024-01-23T23:00:00,hld,2.83
2024-01-23T23:01:00,hld,2.86
2024-01-23T23:02:00,hld,2.83
2024-01-23T23:03:00,hld,2.81
2024-01-23T23:04:00,hld,2.79
2024-01-23T23:05:00,hld,2.83
2024-01-23T23:06:00,hld,2.85
2024-01-23T23:07:00,hld,2.82
2024-01-23T23:08:00,hld,2.83
2024-01-23T23:09:00,hld,2.83
2024-01-23T23:10:00,hld,2.82
2024-01-23T23:11:00,hld,2.85
2024-01-23T23:12:00,hld,2.85
2024-01-23T23:13:00,hld,2.84
2024-01-23T23:14:00,hld,2.95
2024-01-23T23:15:00,hld,2.96
2024-01-23T23:16:00,hld,2.96
2024-01-23T23:17:00,hld,2.98
2024-01-23T23:18:00,hld,2.97
2024-01-23T23:19:00,hld,2.94
2024-01-23T23:20:00,hld,2.94
2024-01-23T23:21:00,hld,4.10
2024-01-23T23:22:00,hld,3.04
2024-01-23T23:23:00,hld,2.93
2024-01-23T23:24:00,hld,2.83
2024-01-23T23:25:00,hld,2.83
2024-01-23T23:26:00,hld,2.85
2024-01-23T23:27:00,hld,3.42
2024-01-23T23:28:00,hld,2.88
2024-01-23T23:29:00,hld,2.83
2024-01-23T23:30:00,hld,2.85
2024-01-23T23:31:00,hld,2.85
2024-01-23T23:32:00,hld,3.54
2024-01-23T23:33:00,hld,2.84
2024-01-23T23:34:00,hld,2.84
2024-01-23T23:35:00,hld,3.04
2024-01-23T23:36:00,hld,2.97
2024-01-23T23:37:00,hld,2.99
2024-01-23T23:38:00,hld,2.98
2024-01-23T23:39:00,hld,2.96
2024-01-23T23:40:00,hld,3.00
2024-01-23T23:41:00,hld,2.97
2024-01-23T23:42:00,hld,2.99
2024-01-23T23:43:00,hld,2.98
2024-01-23T23:44:00,hld,2.95
2024-01-23T23:45:00,hld,2.96
2024-01-23T23:46:00,hld,2.95
2024-01-23T23:47:00,hld,2.96
2024-01-23T23:48:00,hld,2.86
2024-01-23T23:49:00,hld,2.85
2024-01-23T23:50:00,hld,2.86
2024-01-23T23:51:00,hld,3.37
2024-01-23T23:52:00,hld,2.82
2024-01-23T23:53:00,hld,2.82
2024-01-23T23:54:00,hld,2.83
2024-01-23T23:55:00,hld,2.81
2024-01-23T23:56:00,hld,2.83
2024-01-23T23:57:00,hld,3.13